This is the latest recevied weather packets stored in our database for station/object N2KI-13. If no packets are shown the sender has not sent any weather packets the latest 10 day(s).
| Time | Temp. | Humidity | Pressure | Rain* | Wind** | Luminosity | Snow |
|---|---|---|---|---|---|---|---|
| 1777860904 | 7.22° C | 68% | 1011.4 hPa | 0 mm | - | - | - |
| 1777859104 | 8.89° C | 63% | 1011.3 hPa | 0 mm | - | - | - |
| 1777858504 | 9.44° C | 58% | 1011.3 hPa | 0 mm | - | - | - |
| 1777858204 | 10° C | 59% | 1011.2 hPa | 0 mm | - | - | - |
| 1777853104 | 13.89° C | 39% | 1010.4 hPa | 0 mm | - | - | - |
| 1777851304 | 14.44° C | 38% | 1010 hPa | 0 mm | - | - | - |
| 1777850703 | 14.44° C | 37% | 1010 hPa | 0 mm | - | - | - |
| 1777850104 | 14.44° C | 37% | 1009.8 hPa | 0 mm | - | - | - |
| 1777847104 | 15° C | 32% | 1009.6 hPa | 0 mm | - | - | - |
| 1777845904 | 15° C | 32% | 1009.4 hPa | 0 mm | - | - | - |
| 1777845604 | 15° C | 32% | 1009.5 hPa | 0 mm | - | - | - |
| 1777844104 | 15.56° C | 31% | 1009.4 hPa | 0 mm | - | - | - |
| 1777842304 | 15° C | 29% | 1009.4 hPa | 0 mm | - | - | - |
| 1777841704 | 14.44° C | 31% | 1009.4 hPa | 0 mm | - | - | - |
| 1777836304 | 14.44° C | 36% | 1010.1 hPa | 0 mm | - | - | - |
| 1777831204 | 12.22° C | 38% | 1010.7 hPa | 0 mm | - | - | - |
| 1777830604 | 11.67° C | 39% | 1010.8 hPa | 0 mm | - | - | - |
| 1777829404 | 11.11° C | 44% | 1011 hPa | 0 mm | - | - | - |
| 1777827904 | 10° C | 45% | 1011.2 hPa | 0 mm | - | - | - |
| 1777827604 | 10° C | 45% | 1011.3 hPa | 0 mm | - | - | - |
| 1777825804 | 10° C | 44% | 1011.4 hPa | 0 mm | - | - | - |
| 1777823704 | 10.56° C | 43% | 1011.5 hPa | 0 mm | - | - | - |
| 1777822204 | 10° C | 43% | 1011.7 hPa | 0 mm | - | - | - |
| 1777821604 | 10.56° C | 42% | 1011.6 hPa | 0 mm | - | - | - |
| 1777820104 | 10° C | 43% | 1011.4 hPa | 0 mm | - | - | - |
* Rain latest hour (hover to see other rain measurements)
** Current wind speed in m/s (hover to see current wind gust speed)